[Date Prev][Date Next][Thread Prev][Thread Next] - [Date Index][Thread Index][Author Index]

2 Line ISS Keps 4-20



ISS
1 25544U 98067A   02110.21851852  .00045678  00000-0  61001-3 0  3317
2 25544  51.6391 344.1794 0006665 344.0749 164.4879 15.57579900194981


----
Via the sarex mailing list at AMSAT.ORG courtesy of AMSAT-NA.
To unsubscribe, send "unsubscribe sarex" to Majordomo@amsat.org



AMSAT Top AMSAT Home